TimeEST,TemperatureF,Dew PointF,Humidity,Sea Level PressureIn,VisibilityMPH,Wind Direction,Wind SpeedMPH,Gust SpeedMPH,PrecipitationIn,Events,Conditions,WindDirDegrees,DateUTC
12:15 AM,39.2,35.6,87,30.32,10.0,Calm,Calm,-,N/A,,Clear,0,2013-01-24 05:15:00
12:35 AM,37.4,35.6,93,30.32,10.0,Calm,Calm,-,N/A,,Clear,0,2013-01-24 05:35:00
1:15 AM,37.4,35.6,93,30.32,10.0,Calm,Calm,-,N/A,,Clear,0,2013-01-24 06:15:00
1:35 AM,35.6,35.6,100,30.32,10.0,Calm,Calm,-,N/A,,Clear,0,2013-01-24 06:35:00
1:55 AM,37.4,35.6,93,30.31,10.0,Calm,Calm,-,N/A,,Clear,0,2013-01-24 06:55:00
2:15 AM,37.4,35.6,93,30.31,10.0,Calm,Calm,-,N/A,,Clear,0,2013-01-24 07:15:00
2:55 AM,35.6,35.6,100,30.31,10.0,Calm,Calm,-,N/A,,Clear,0,2013-01-24 07:55:00
3:15 AM,35.6,35.6,100,30.31,10.0,Calm,Calm,-,N/A,,Clear,0,2013-01-24 08:15:00
3:35 AM,35.6,35.6,100,30.32,10.0,Calm,Calm,-,N/A,,Clear,0,2013-01-24 08:35:00
3:55 AM,35.6,35.6,100,30.32,10.0,Calm,Calm,-,N/A,,Clear,0,2013-01-24 08:55:00
4:15 AM,35.6,35.6,100,30.31,10.0,Calm,Calm,-,N/A,,Clear,0,2013-01-24 09:15:00
4:35 AM,35.6,35.6,100,30.31,10.0,Calm,Calm,-,N/A,,Clear,0,2013-01-24 09:35:00
4:55 AM,35.6,35.6,100,30.30,10.0,Calm,Calm,-,N/A,,Clear,0,2013-01-24 09:55:00
5:15 AM,35.6,35.6,100,30.30,10.0,South,4.6,-,N/A,,Clear,190,2013-01-24 10:15:00
5:35 AM,35.6,35.6,100,30.29,10.0,SSW,3.5,-,N/A,,Clear,200,2013-01-24 10:35:00
5:55 AM,35.6,35.6,100,30.31,10.0,Calm,Calm,-,N/A,,Clear,0,2013-01-24 10:55:00
6:15 AM,37.4,35.6,93,30.31,10.0,Calm,Calm,-,N/A,,Clear,0,2013-01-24 11:15:00
6:35 AM,37.4,35.6,93,30.30,10.0,Calm,Calm,-,N/A,,Clear,0,2013-01-24 11:35:00
6:55 AM,35.6,35.6,100,30.31,10.0,Calm,Calm,-,N/A,,Clear,0,2013-01-24 11:55:00
7:15 AM,33.8,33.8,100,30.32,10.0,Calm,Calm,-,N/A,,Clear,0,2013-01-24 12:15:00
7:35 AM,35.6,35.6,100,30.32,7.0,Calm,Calm,-,N/A,,Clear,0,2013-01-24 12:35:00
7:55 AM,35.6,35.6,100,30.33,10.0,Calm,Calm,-,N/A,,Clear,0,2013-01-24 12:55:00
8:15 AM,39.2,37.4,93,30.33,10.0,Calm,Calm,-,N/A,,Clear,0,2013-01-24 13:15:00
8:35 AM,42.8,41.0,93,30.33,10.0,Calm,Calm,-,N/A,,Clear,0,2013-01-24 13:35:00
8:55 AM,48.2,44.6,87,30.34,10.0,Calm,Calm,-,N/A,,Clear,0,2013-01-24 13:55:00
9:15 AM,51.8,46.4,82,30.35,10.0,Calm,Calm,-,N/A,,Clear,0,2013-01-24 14:15:00
9:35 AM,57.2,48.2,72,30.35,10.0,Calm,Calm,-,N/A,,Clear,0,2013-01-24 14:35:00
9:55 AM,60.8,46.4,59,30.36,10.0,Calm,Calm,-,N/A,,Clear,0,2013-01-24 14:55:00
10:15 AM,62.6,46.4,55,30.35,5.0,Calm,Calm,-,N/A,,Haze,0,2013-01-24 15:15:00
10:35 AM,64.4,46.4,52,30.35,5.0,West,5.8,-,N/A,,Haze,280,2013-01-24 15:35:00
10:55 AM,66.2,44.6,46,30.35,7.0,NNW,3.5,-,N/A,,Clear,330,2013-01-24 15:55:00
11:15 AM,68.0,44.6,43,30.35,7.0,WNW,5.8,-,N/A,,Clear,300,2013-01-24 16:15:00
11:35 AM,68.0,44.6,43,30.35,5.0,NNW,6.9,-,N/A,,Haze,330,2013-01-24 16:35:00
11:55 AM,68.0,44.6,43,30.34,5.0,WNW,5.8,-,N/A,,Haze,300,2013-01-24 16:55:00
12:15 PM,68.0,44.6,43,30.32,7.0,NNW,8.1,-,N/A,,Clear,340,2013-01-24 17:15:00
12:35 PM,69.8,46.4,43,30.31,10.0,North,8.1,-,N/A,,Clear,350,2013-01-24 17:35:00
12:55 PM,69.8,46.4,43,30.30,10.0,NNW,6.9,16.1,N/A,,Clear,330,2013-01-24 17:55:00
1:15 PM,69.8,48.2,46,30.29,10.0,NNW,8.1,-,N/A,,Clear,340,2013-01-24 18:15:00
1:35 PM,69.8,50.0,49,30.28,10.0,NW,5.8,-,N/A,,Clear,320,2013-01-24 18:35:00
1:55 PM,69.8,50.0,49,30.27,10.0,West,3.5,-,N/A,,Clear,270,2013-01-24 18:55:00
2:35 PM,69.8,51.8,53,30.27,10.0,NNW,5.8,-,N/A,,Clear,340,2013-01-24 19:35:00
2:55 PM,69.8,51.8,53,30.27,10.0,WNW,5.8,-,N/A,,Clear,290,2013-01-24 19:55:00
3:15 PM,69.8,51.8,53,30.26,10.0,NW,3.5,-,N/A,,Clear,310,2013-01-24 20:15:00
3:35 PM,69.8,51.8,53,30.26,10.0,North,5.8,-,N/A,,Clear,350,2013-01-24 20:35:00
3:55 PM,69.8,51.8,53,30.26,10.0,NNW,4.6,-,N/A,,Clear,330,2013-01-24 20:55:00
4:15 PM,69.8,53.6,56,30.26,10.0,West,3.5,-,N/A,,Clear,270,2013-01-24 21:15:00
4:35 PM,68.0,53.6,60,30.26,10.0,West,5.8,-,N/A,,Clear,270,2013-01-24 21:35:00
4:55 PM,66.2,53.6,64,30.26,10.0,Calm,Calm,-,N/A,,Clear,0,2013-01-24 21:55:00
5:15 PM,64.4,51.8,64,30.26,10.0,West,3.5,-,N/A,,Clear,270,2013-01-24 22:15:00
5:35 PM,64.4,51.8,64,30.26,10.0,Calm,Calm,-,N/A,,Clear,0,2013-01-24 22:35:00
5:55 PM,62.6,51.8,68,30.27,10.0,Calm,Calm,-,N/A,,Clear,0,2013-01-24 22:55:00
6:15 PM,60.8,51.8,72,30.27,10.0,Calm,Calm,-,N/A,,Clear,0,2013-01-24 23:15:00
6:35 PM,60.8,51.8,72,30.28,7.0,Calm,Calm,-,N/A,,Clear,0,2013-01-24 23:35:00
6:55 PM,59.0,51.8,77,30.28,10.0,Calm,Calm,-,N/A,,Clear,0,2013-01-24 23:55:00
7:15 PM,57.2,51.8,82,30.28,10.0,Calm,Calm,-,N/A,,Clear,0,2013-01-25 00:15:00
7:35 PM,55.4,51.8,88,30.29,10.0,Calm,Calm,-,N/A,,Clear,0,2013-01-25 00:35:00
7:55 PM,55.4,51.8,88,30.29,10.0,Calm,Calm,-,N/A,,Clear,0,2013-01-25 00:55:00
8:15 PM,53.6,51.8,94,30.29,10.0,Calm,Calm,-,N/A,,Clear,0,2013-01-25 01:15:00
8:35 PM,53.6,51.8,94,30.29,10.0,Calm,Calm,-,N/A,,Clear,0,2013-01-25 01:35:00
8:55 PM,51.8,51.8,100,30.29,10.0,Calm,Calm,-,N/A,,Clear,0,2013-01-25 01:55:00
9:15 PM,51.8,51.8,100,30.29,5.0,Calm,Calm,-,N/A,,Clear,0,2013-01-25 02:15:00
9:35 PM,51.8,50.0,94,30.30,7.0,Calm,Calm,-,N/A,,Clear,0,2013-01-25 02:35:00
9:55 PM,50.0,50.0,100,30.30,5.0,Calm,Calm,-,N/A,,Clear,0,2013-01-25 02:55:00
10:15 PM,50.0,50.0,100,30.30,5.0,Calm,Calm,-,N/A,,Clear,0,2013-01-25 03:15:00
10:35 PM,50.0,48.2,94,30.30,5.0,Calm,Calm,-,N/A,,Scattered Clouds,0,2013-01-25 03:35:00
10:55 PM,48.2,48.2,100,30.31,0.8,Calm,Calm,-,N/A,,Mist,0,2013-01-25 03:55:00
11:15 PM,48.2,48.2,100,30.31,7.0,Calm,Calm,-,N/A,,Clear,0,2013-01-25 04:15:00
11:35 PM,48.2,48.2,100,30.32,3.0,Calm,Calm,-,N/A,,Scattered Clouds,0,2013-01-25 04:35:00
11:55 PM,46.4,46.4,100,30.32,7.0,Calm,Calm,-,N/A,,Mostly Cloudy,0,2013-01-25 04:55:00